Location: Unspecified
(43.9500°N, 64.7900°W)
Time: 22:53:04
(UTC-04:00)

OTV 5 (USA 277) - Visible Passes

Search period start: 19 January 2019 00:00
Search period end: 29 January 2019 00:00
Orbit: 339 x 349 km, 54.5° (Epoch: 15 January)

Date Brightness Start Highest point End Pass type
(mag) Time Alt. Az. Time Alt. Az. Time Alt. Az.
24 Jan ? 06:40:38 10° S 06:42:37 17° SE 06:44:38 10° E visible
25 Jan ? 07:03:14 10° SW 07:06:04 54° SE 07:08:57 10° ENE visible
26 Jan ? 05:53:09 10° S 05:55:05 16° SE 05:57:00 10° E visible
27 Jan ? 06:16:17 15° SSW 06:18:31 51° SE 06:21:22 10° ENE visible
28 Jan ? 05:08:32 13° ESE 05:08:32 13° ESE 05:09:22 10° E visible
28 Jan ? 06:40:01 16° WSW 06:42:09 48° NNW 06:45:01 10° NE visible
